Regional Weather Roundup
Issued by NWS

Home | Current Version | Previous Version | Text Only | Print | Product List | Glossary Off
Versions: 1 2 3 4 5 6 7 8 9 10 11 12 13 14 15 16 17 18 19 20 21 22 23 24 25 26 27 28 29 30 31 32 33 34 35 36 37 38 39 40 41 42 43 44 45 46 47 48 49 50

000
ASUS43 KMKX 030011
RWRWI

WISCONSIN REGIONAL WEATHER ROUNDUP
NATIONAL WEATHER SERVICE MILWAUKEE/SULLIVAN WI
700 PM CDT THU JUL 02 2015

NOTE: "FAIR" INDICATES FEW OR NO CLOUDS BELOW 12,000 FEET WITH NO
SIGNIFICANT WEATHER AND/OR OBSTRUCTIONS TO VISIBILITY.

WIZ001-002-006>008-014>016-023>028-030100-
NORTHWEST WISCONSIN

CITY           SKY/WX    TMP DP  RH WIND       PRES   REMARKS
SUPERIOR ARPT  SUNNY     75  58  56 SW7       29.94S
6HR MIN TEMP:  75; 6HR MAX TEMP:  78;

ASHLAND        SUNNY     74  59  59 SW5       29.96S
6HR MIN TEMP:  74; 6HR MAX TEMP:  77;

HAYWARD        SUNNY     73  50  44 SW6       29.99S
6HR MIN TEMP:  72; 6HR MAX TEMP:  76;

SIREN          SUNNY     74  50  42 S6        29.98F
6HR MIN TEMP:  74; 6HR MAX TEMP:  77;

CUMBERLAND     SUNNY     72  52  49 S7        30.00S
RICE LAKE      SUNNY     73  53  49 S3        30.01S
6HR MIN TEMP:  72; 6HR MAX TEMP:  75;

CHETEK         SUNNY     73  54  51 S3        29.99F
6HR MIN TEMP:  72; 6HR MAX TEMP:  75;

LADYSMITH      SUNNY     73  55  53 SW6       30.02S
6HR MIN TEMP:  73; 6HR MAX TEMP:  75;

EAU CLAIRE     CLOUDY    75  54  47 VRB3      29.98F
6HR MIN TEMP:  73; 6HR MAX TEMP:  76;

MENOMONIE      SUNNY     74  55  51 S3        29.99S
6HR MIN TEMP:  73; 6HR MAX TEMP:  76;

NEW RICHMOND   SUNNY     72  54  53 SW6       29.99S
6HR MIN TEMP:  72; 6HR MAX TEMP:  75;

OSCEOLA        SUNNY     75  54  48 SW6       30.00F
6HR MIN TEMP:  74; 6HR MAX TEMP:  77;

$$

WIZ003>005-009-010-017-018-030100-
NORTH CENTRAL WISCONSIN

CITY           SKY/WX    TMP DP  RH WIND       PRES   REMARKS
MANITOWISH WTR MOSUNNY   72  54  54 W7        29.99S
6HR MIN TEMP:  71; 6HR MAX TEMP:  74;

ARBOR VITAE    SUNNY     72  53  52 SW6       30.00S
6HR MIN TEMP:  72; 6HR MAX TEMP:  77;

WOODRUFF       SUNNY     72  53  52 SW6       30.00S
6HR MIN TEMP:  72; 6HR MAX TEMP:  77;

RHINELANDER    SUNNY     73  51  46 SW8       30.01S
6HR MIN TEMP:  71; 6HR MAX TEMP:  77;

EAGLE RIVER    SUNNY     70  51  50 SW5       30.00R
LAND O LAKES   SUNNY     72  51  47 SW3       30.00F
6HR MIN TEMP:  72; 6HR MAX TEMP:  76;

PHILLIPS       SUNNY     72  53  51 SW5       29.99S
6HR MIN TEMP:  72; 6HR MAX TEMP:  75;

TOMAHAWK       SUNNY     71  55  58 CALM      30.01S
6HR MIN TEMP:  70; 6HR MAX TEMP:  74;

MEDFORD        SUNNY     71  51  50 S3        30.02S
6HR MIN TEMP:  69; 6HR MAX TEMP:  73;

MERRILL        SUNNY     72  52  49 S3        30.01S
6HR MIN TEMP:  70; 6HR MAX TEMP:  75;

$$

WIZ029-030-035-036-043>047-030100-
CENTRAL WISCONSIN

CITY           SKY/WX    TMP DP  RH WIND       PRES   REMARKS
WAUSAU         SUNNY     73  49  42 S7        30.00R
6HR MIN TEMP:  72; 6HR MAX TEMP:  76;

MOSINEE        SUNNY     70  52  52 S7        30.02S
MARSHFIELD     SUNNY     72  49  44 S3        30.01S
6HR MIN TEMP:  70; 6HR MAX TEMP:  74;

STEVENS POINT  SUNNY     69  49  48 SE6       30.02S
6HR MIN TEMP:  67; 6HR MAX TEMP:  72;

WAUPACA        SUNNY     73  48  41 S7        30.02R
6HR MIN TEMP:  73; 6HR MAX TEMP:  78;

WAUTOMA        SUNNY     72  48  42 E5        30.01F
6HR MIN TEMP:  69; 6HR MAX TEMP:  73;

WISC RAPIDS    SUNNY     72  47  40 S6        30.02S
6HR MIN TEMP:  70; 6HR MAX TEMP:  75;

CAMP DOUGLAS   SUNNY     70  53  55 E6        29.98F
6HR MIN TEMP:  70; 6HR MAX TEMP:  73;

$$

WIZ011>013-019>022-031-037>040-048>050-030100-
NORTHEAST WISCONSIN

CITY           SKY/WX    TMP DP  RH WIND       PRES   REMARKS
ANTIGO         SUNNY     67  53  61 S6        30.03S
SHAWANO        SUNNY     73  47  39 SE5       30.02R
OCONTO         SUNNY     69  50  50 CALM      30.01S
6HR MIN TEMP:  68; 6HR MAX TEMP:  72;

STURGEON BAY   SUNNY     66  45  45 CALM      30.04S
6HR MIN TEMP:  66; 6HR MAX TEMP:  70;

GREEN BAY      SUNNY     71  46  40 S5        30.02R
6HR MIN TEMP:  71; 6HR MAX TEMP:  74;

MANITOWOC      SUNNY     67  48  50 MISG      30.02S
6HR MIN TEMP:  66; 6HR MAX TEMP:  68;

APPLETON       SUNNY     70  43  37 SE8       30.02S
CLINTONVILLE   SUNNY     72  45  37 S7        30.01S
OSHKOSH        SUNNY     71  44  37 E5        30.01S
6HR MIN TEMP:  68; 6HR MAX TEMP:  73;

$$

WIZ032>034-041-042-053>061-030100-
SOUTHWEST WISCONSIN

CITY           SKY/WX    TMP DP  RH WIND       PRES   REMARKS
LA CROSSE      SUNNY     74  53  48 SE7       29.97F
6HR MIN TEMP:  72; 6HR MAX TEMP:  77;

SPARTA         SUNNY     73  47  39 SE5       29.99F
6HR MIN TEMP:  73; 6HR MAX TEMP:  76;

VIROQUA        SUNNY     71  53  53 E5        30.00S
6HR MIN TEMP:  69; 6HR MAX TEMP:  73;

BOSCOBEL       MOSUNNY   71  52  50 SE5       29.99S
6HR MIN TEMP:  71; 6HR MAX TEMP:  76;

PRAIRIE DU CHI PTSUNNY   70  52  53 NE3       29.98S
6HR MIN TEMP:  69; 6HR MAX TEMP:  72;

PLATTEVILLE    PTSUNNY   68  50  51 E6        29.99S
6HR MIN TEMP:  68; 6HR MAX TEMP:  71;

$$

WIZ056-057-062-063-064-067-068-030100-
SOUTH CENTRAL WISCONSIN

CITY           SKY/WX    TMP DP  RH WIND       PRES   REMARKS
REEDSBURG      SUNNY     70  51  51 E3        29.98F
6HR MIN TEMP:  68; 6HR MAX TEMP:  72;

BARABOO/DELLS  SUNNY     69  49  48 E5        29.99F
6HR MIN TEMP:  67; 6HR MAX TEMP:  72;

LONE ROCK      MOSUNNY   71  52  50 NE6       29.98F
6HR MIN TEMP:  70; 6HR MAX TEMP:  74;

MINERAL POINT  MOSUNNY   68  48  49 CALM      30.00R
MADISON        MOSUNNY   69  49  48 E7        29.98F
6HR MIN TEMP:  68; 6HR MAX TEMP:  72;

MIDDLETON      SUNNY     71  47  43 NE6       29.99F
6HR MIN TEMP:  68; 6HR MAX TEMP:  73;

WATERTOWN      SUNNY     67  44  42 E5        30.00S
6HR MIN TEMP:  67; 6HR MAX TEMP:  72;

MONROE         MOSUNNY   64  50  59 NE6       29.99R
JANESVILLE     SUNNY     70  46  43 E8        29.97F
$$

WIZ051-052-058>065-066-070>072-030100-
SOUTHEAST WISCONSIN

CITY           SKY/WX    TMP DP  RH WIND       PRES   REMARKS
MILWAUKEE      MOSUNNY   60  48  64 NE8       30.01F
6HR MIN TEMP:  60; 6HR MAX TEMP:  64;

WAUKESHA       SUNNY     64  48  55 NE5       30.02S
MILWAUKEE/TIMM SUNNY     64  46  52 NE8       30.02F
RACINE         SUNNY     60  49  66 N9        30.02F
6HR MIN TEMP:  60; 6HR MAX TEMP:  66;

BURLINGTON     SUNNY     64  51  63 NE6       29.99F
6HR MIN TEMP:  64; 6HR MAX TEMP:  68;

KENOSHA        SUNNY     63  51  65 NE10      30.00F
6HR MIN TEMP:  63; 6HR MAX TEMP:  68;

FOND DU LAC    SUNNY     70  46  42 E6        30.01S
6HR MIN TEMP:  69; 6HR MAX TEMP:  74;

SHEBOYGAN      SUNNY     65  45  48 NE7       30.02S
6HR MIN TEMP:  65; 6HR MAX TEMP:  68;

WEST BEND      SUNNY     64  50  59 E5        30.02S
JUNEAU         SUNNY     67  45  44 E7        30.02S
6HR MIN TEMP:  66; 6HR MAX TEMP:  72;

$$

LSZ147-162-030100-
LAKE SUPERIOR

STATION/POSITION TIME  TEMP    WIND        PRES    WAVE
                       AIR SEA DIR/SP/G            HT/PER
                 (UTC) (F)     (DEG/KT/KT) (MB)    (FT/S)
W MID LAKE BUOY  2350   54 39  280/  6/ 12 1013.7F   0
DEVILS ISLAND    0000   69     220/ 10/ 11 1013.3F
SAXON HARBOR     2300   77     260/  2/  6 1014.2F
$$

LMZ867-665-643>646-030100-
LAKE MICHIGAN

STATION/POSITION TIME  TEMP    WIND        PRES    WAVE
                       AIR SEA DIR/SP/G            HT/PER
                 (UTC) (F)     (DEG/KT/KT) (MB)    (FT/S)
CHAMBERS ISLAND  2300   69     100/  4/  6 1016.3F
S GREEN BAY BUOY 2230   70 70  120/  6/  8 1017.6


USA.gov is the U.S. government's official web portal to all federal, state and local government web resources and services.